Location: Betzi
(47.2343°N, 9.5260°E)
Time: 23:28:25
(UTC+00:00)

Cosmos 292 Rocket - Pass Details

Date: 27 May 2022
Orbit: 674 x 692 km, 74.0° (Epoch: 26 June)

Event Time Altitude Azimuth Distance (km) Brightness Sun altitude
Exits shadow 02:25:29 13° 229° (SW) 1,951 5.4 -9.7°
Maximum altitude 02:29:33 43° 298° (WNW) 960 4.4 -9.2°
Drops below altitude 10° 02:34:08 10° 11° (N) 2,131 7.2 -8.7°
Sets 02:36:33 0° 18° (NNE) 3,047 8.4 -8.4°
